Regional Weather Roundup
Issued by NWS Charleston, WV

Home | Current Version | Previous Version | Graphics & Text | Print | Product List | Glossary On
Versions: 1 2 3 4 5 6 7 8 9 10 11 12 13 14 15 16 17 18 19 20 21 22 23 24 25 26 27 28 29 30 31 32 33 34 35 36 37 38 39 40 41 42 43 44 45 46 47 48 49 50
000
ASUS41 KRLX 101010
RWRRLX
West Virginia Regional Weather Roundup
National Weather Service Charleston WV
500 AM EST WED FEB 10 2016

Note: "fair" indicates few or no clouds below 12,000 feet with no
significant weather and/or obstructions to visibility.

WVZ003-101100-
Northern Panhandle of West Virginia

CITY           SKY/WX    TMP DP  RH WIND       PRES   REMARKS
WHEELING       FLURRIES  21  15  78 W12G26    29.76R WCI   9
$$

WVZ009-101100-
Northwest West Virginia

CITY           SKY/WX    TMP DP  RH WIND       PRES   REMARKS
PARKERSBURG    FLURRIES  20  14  77 W9        29.88R WCI   9
$$

WVZ006-101100-
Western West Virginia

CITY           SKY/WX    TMP DP  RH WIND       PRES   REMARKS
HUNTINGTON     FLURRIES  19  11  70 W10       29.92R WCI   7
$$

WVZ015-101100-
West Central West Virginia

CITY           SKY/WX    TMP DP  RH WIND       PRES   REMARKS
CHARLESTON     LGT SNOW  22  12  65 W8G20     29.88R
$$

WVZ022-031-101100-
North Central West Virginia

CITY           SKY/WX    TMP DP  RH WIND       PRES   REMARKS
CLARKSBURG     LGT SNOW  21  17  84 W10G17    29.80R WCI  10
MORGANTOWN     CLOUDY    22  15  75 MISG      29.77R
$$

WVZ025-035-042-045-101100-
Southern West Virginia

CITY           SKY/WX    TMP DP  RH WIND       PRES   REMARKS
BECKLEY        LGT SNOW  16  11  80 NW10      29.76R WCI   4
LOGAN          CLOUDY    18  10  73 W9        29.85R WCI   6
BLUEFIELD      CLOUDY    15   9  76 W10       29.74S WCI   2
LEWISBURG      LGT SNOW  20  15  79 W7        29.75S
$$

WVZ047-101100-
Northern Mountains of West Virginia

CITY           SKY/WX    TMP DP  RH WIND       PRES   REMARKS
ELKINS         LGT SNOW  19  12  74 W8        29.75R WCI   9
$$

WVZ052-101100-
Eastern Panhandle of West Virginia

CITY           SKY/WX    TMP DP  RH WIND       PRES   REMARKS
MARTINSBURG    CLOUDY    28  16  60 W12       29.71R
PETERSBURG     CLOUDY    27  13  57 CALM      29.75R
$$



USA.gov is the U.S. government's official web portal to all federal, state and local government web resources and services.